User: anonymous   Login
Location: Unspecified
(0.0000°N, 0.0000°E)
Time: 10:20:51
(UTC+00:00)
Language:

Oscar 11 - Orbit

View from above orbital plane
View from above orbital plane
View from above satellite
View from above satellite

Ground track
Ground track

The orbit data is extracted from the following two-line orbital elements,

1 14781U 84021B   20219.48282606  .00000076  00000-0  15354-4 0  9991
2 14781  97.5897 228.9676 0009508  44.5499 315.6478 14.83182327960249
Epoch (UTC): 06 August 2020 11:35:16
Eccentricity: 0.0009508
inclination: 97.5897°
perigee height: 612 km
apogee height: 626 km
right ascension of ascending node: 228.9676°
argument of perigee: 44.5499°
revolutions per day: 14.83182327
mean anomaly at epoch: 315.6478°
orbit number at epoch: 96024

The dashed part of the orbit path shows where the satellite is in the earth's shadow,  

DLR